Location: Banios
(43.0451°N, 0.2335°E)
Time: 08:46:09
(UTC+00:00)

A-11 Canister half - Pass Details

Date: 05 December 2021
Orbit: 1516 x 1684 km, 47.2° (Epoch: 22 January)

Event Time Altitude Azimuth Distance (km) Brightness Sun altitude
Rises 04:45:47 0° 195° (SSW) 4,703 11.5 -26.5°
Reaches altitude 10° 04:49:20 10° 185° (S) 3,745 11.0 -25.8°
Maximum altitude 04:57:01 29° 130° (SE) 2,632 10.7 -24.4°
Drops below altitude 10° 05:04:54 10° 76° (ENE) 3,868 12.0 -23.0°
Sets 05:08:37 0° 66° (ENE) 4,881 12.5 -22.4°
